"startDT [UTC]","vpos","CH4 [ppm]","stdev(CH4) [ppm]","CO2 [ppm]","stdev(CO2) [ppm]","H2O_reported [%]","stdev(H2O_reported)","CavityPressure [torr]","CavityTemp [C]","OutletValve","CH4_dry [ppm]","CO2_dry [ppm]","DasTemp [C]","EtalonTemp [C]","WarmBoxTemp [C]","MPVPosition","T_ECpre [C]","T_EC1 [C]","T_EC2 [C]","p_inlet [hPa]","p_in [hPa]","p_out [hPa]","T_inlet [C]","RH_inlet [%]","dwpt_inlet [C]","T_vent [C]","RH_vent [%]","dwpt_vent [C]","flow_vent [l min-1]","flow_inlet [l min-1]","dwpt_sample [C]","T_room [C]"
2015-05-08 00:00:00,0.0,1.90780,0.00035,403.633,0.030,0.2923,0.0016,140.000,45.000,34199.21923,1.91333,405.062,32.438,45.068,45.000,0.00,0.09,-272.72,-272.78,-5,978,-3,22.3,8.1,-13.3,22.0,8.4,-13.2,5.73,1.98,-6.6,26.5
2015-05-08 00:01:00,0.0,1.90759,0.00024,403.622,0.031,0.2915,0.0021,140.000,45.000,34199.57102,1.91312,405.050,32.446,45.068,45.000,0.00,0.09,-272.72,-272.78,-5,978,-3,22.3,8.1,-13.4,22.0,8.3,-13.3,5.73,1.99,-6.6,26.6
2015-05-08 00:02:00,0.0,1.90788,0.00045,403.634,0.027,0.2898,0.0011,139.997,45.000,34196.86788,1.91334,405.052,32.447,45.068,45.000,0.00,0.09,-272.71,-272.77,-5,978,-3,22.3,8.1,-13.4,22.0,8.3,-13.3,5.73,1.98,-6.6,26.5
2015-05-08 00:03:00,0.0,1.90762,0.00024,403.642,0.034,0.2926,0.0014,140.000,45.000,34197.96615,1.91318,405.073,32.441,45.068,45.000,0.00,0.09,-272.72,-272.78,-5,978,-3,22.3,8.1,-13.4,22.0,8.3,-13.3,5.73,1.98,-6.6,26.5
2015-05-08 00:04:00,0.0,1.90777,0.00040,403.618,0.037,0.2968,0.0021,140.003,45.000,34199.86731,1.91339,405.071,32.435,45.068,45.000,0.00,0.09,-272.72,-272.77,-5,978,-3,22.3,8.3,-13.2,22.0,8.5,-13.1,5.73,1.99,-6.6,26.5
2015-05-08 00:05:00,0.0,1.90758,0.00030,403.619,0.037,0.3005,0.0019,140.003,45.000,34197.53337,1.91325,405.089,32.410,45.068,45.000,0.00,0.09,-272.71,-272.77,-5,978,-3,22.3,8.3,-13.1,22.0,8.6,-13.0,5.73,1.99,-6.6,26.4
2015-05-08 00:06:00,0.0,1.90763,0.00031,403.626,0.021,0.2974,0.0023,139.997,45.000,34194.10808,1.91325,405.081,32.385,45.068,45.000,0.00,0.09,-272.72,-272.78,-5,978,-3,22.3,8.3,-13.1,22.0,8.5,-13.0,5.73,1.98,-6.6,26.5
2015-05-08 00:07:00,0.0,1.90815,0.00045,403.595,0.045,0.2980,0.0025,140.000,45.000,34194.53491,1.91381,405.054,32.375,45.068,45.000,0.00,0.09,-272.72,-272.78,-5,978,-3,22.3,8.3,-13.1,22.0,8.5,-13.0,5.73,1.99,-6.6,26.4
2015-05-08 00:08:00,0.0,1.90832,0.00048,403.639,0.034,0.2982,0.0021,139.997,45.000,34192.84168,1.91394,405.099,32.377,45.068,45.000,0.00,0.09,-272.71,-272.77,-5,977,-3,22.3,8.3,-13.1,22.0,8.5,-13.0,5.73,1.98,-6.6,26.5
2015-05-08 00:09:00,0.0,1.90813,0.00044,403.601,0.019,0.2987,0.0016,140.000,45.000,34196.19126,1.91379,405.061,32.390,45.068,45.000,0.00,0.09,-272.72,-272.78,-5,978,-3,22.3,8.3,-13.2,22.0,8.5,-13.0,5.73,1.99,-6.6,26.5
2015-05-08 00:10:00,0.0,1.90843,0.00038,403.608,0.033,0.2970,0.0021,140.003,45.000,34196.50062,1.91402,405.061,32.430,45.068,45.000,0.00,0.09,-272.72,-272.78,-5,978,-3,22.3,8.3,-13.2,22.0,8.5,-13.1,5.73,1.98,-6.6,26.5
2015-05-08 00:11:00,0.0,1.90848,0.00061,403.615,0.030,0.2995,0.0024,140.000,45.000,34197.50179,1.91418,405.080,32.438,45.068,45.000,0.00,0.09,-272.71,-272.77,-5,978,-3,22.3,8.3,-13.1,22.0,8.5,-13.0,5.73,1.99,-6.6,26.4
2015-05-08 00:12:00,0.0,1.90938,0.00065,403.605,0.038,0.2994,0.0020,140.003,45.000,34198.20635,1.91497,405.070,32.438,45.068,45.000,0.00,0.09,-272.72,-272.77,-5,978,-3,22.3,8.3,-13.1,22.0,8.5,-13.0,5.73,1.98,-6.6,26.5
2015-05-08 00:13:00,0.0,1.91035,0.00034,403.623,0.033,0.2992,0.0016,139.999,45.000,34196.13468,1.91601,405.088,32.438,45.068,45.000,0.00,0.09,-272.72,-272.78,-5,978,-3,22.3,8.3,-13.1,22.0,8.6,-13.0,5.73,1.98,-6.6,26.4
2015-05-08 00:14:00,0.0,1.91074,0.00033,403.613,0.034,0.2961,0.0018,140.001,45.000,34195.92088,1.91635,405.063,32.439,45.068,45.000,0.00,0.09,-272.72,-272.77,-5,978,-3,22.3,8.2,-13.2,22.0,8.5,-13.1,5.73,1.99,-6.6,26.5
2015-05-08 00:15:00,0.0,1.91058,0.00049,403.617,0.026,0.2928,0.0015,140.002,45.000,34196.92861,1.91613,405.048,32.438,45.068,45.000,0.00,0.09,-272.71,-272.77,-5,978,-3,22.3,8.2,-13.3,21.9,8.4,-13.2,5.73,1.98,-6.6,26.4
2015-05-08 00:16:00,0.0,1.91105,0.00035,403.614,0.031,0.2936,0.0020,140.000,45.000,34197.90870,1.91660,405.050,32.435,45.068,45.000,0.00,0.09,-272.72,-272.77,-5,978,-3,22.3,8.2,-13.3,22.0,8.4,-13.2,5.73,1.98,-6.6,26.4
2015-05-08 00:17:00,0.0,1.91096,0.00030,403.630,0.030,0.2917,0.0018,139.996,45.000,34198.59386,1.91650,405.057,32.438,45.068,45.000,0.00,0.09,-272.72,-272.78,-5,978,-3,22.3,8.1,-13.4,22.0,8.4,-13.3,5.73,1.98,-6.6,26.4
2015-05-08 00:18:00,0.0,1.91125,0.00042,403.623,0.026,0.2933,0.0019,140.001,45.000,34197.87470,1.91678,405.058,32.416,45.068,45.000,0.00,0.09,-272.71,-272.77,-5,978,-3,22.3,8.1,-13.4,22.0,8.4,-13.2,5.73,1.98,-6.6,26.5
2015-05-08 00:19:00,0.0,1.91103,0.00035,403.590,0.035,0.2949,0.0016,140.000,45.000,34199.45279,1.91664,405.033,32.416,45.068,45.000,0.00,0.09,-272.71,-272.77,-5,978,-3,22.3,8.2,-13.3,22.0,8.4,-13.2,5.73,1.98,-6.6,26.5
2015-05-08 00:20:00,0.0,1.91083,0.00039,403.601,0.025,0.2960,0.0018,140.001,45.000,34201.42974,1.91646,405.050,32.402,45.068,45.000,0.00,0.09,-272.72,-272.78,-5,978,-3,22.3,8.2,-13.2,22.0,8.4,-13.1,5.73,1.98,-6.6,26.4
2015-05-08 00:21:00,0.0,1.91095,0.00036,403.624,0.041,0.2959,0.0022,139.999,45.000,34199.15034,1.91653,405.072,32.408,45.068,45.000,0.00,0.09,-272.71,-272.77,-5,978,-3,22.3,8.2,-13.2,22.0,8.5,-13.1,5.73,1.98,-6.6,26.4
2015-05-08 00:22:00,0.0,1.91036,0.00032,403.595,0.024,0.2963,0.0014,140.002,45.000,34201.10099,1.91598,405.042,32.382,45.068,45.000,0.00,0.09,-272.72,-272.77,-5,978,-3,22.3,8.3,-13.2,22.0,8.5,-13.1,5.73,1.98,-6.6,26.5
2015-05-08 00:23:00,0.0,1.90963,0.00054,403.607,0.032,0.2952,0.0020,139.998,45.000,34200.33902,1.91529,405.053,32.375,45.068,45.000,0.00,0.09,-272.72,-272.78,-5,978,-3,22.3,8.2,-13.3,22.0,8.5,-13.1,5.73,1.99,-6.6,26.4
2015-05-08 00:24:00,0.0,1.90971,0.00046,403.622,0.037,0.2940,0.0016,140.001,45.000,34200.48357,1.91527,405.060,32.382,45.068,45.000,0.00,0.09,-272.72,-272.77,-5,978,-3,22.3,8.2,-13.3,22.0,8.4,-13.2,5.73,1.99,-6.6,26.5
2015-05-08 00:25:00,0.0,1.90965,0.00035,403.610,0.034,0.2920,0.0016,139.999,45.000,34199.10254,1.91517,405.038,32.383,45.068,45.000,0.00,0.09,-272.72,-272.77,-5,977,-3,22.3,8.1,-13.4,22.0,8.4,-13.3,5.73,1.98,-6.6,26.4
2015-05-08 00:26:00,0.0,1.90921,0.00037,403.618,0.042,0.2913,0.0018,139.999,45.000,34199.56489,1.91476,405.043,32.389,45.068,45.000,0.00,0.09,-272.72,-272.78,-5,978,-3,22.3,8.1,-13.4,22.0,8.3,-13.3,5.73,1.98,-6.6,26.4
2015-05-08 00:27:00,0.0,1.90910,0.00024,403.609,0.034,0.2923,0.0019,140.000,45.000,34199.50339,1.91464,405.040,32.401,45.068,45.000,0.00,0.09,-272.72,-272.78,-5,978,-3,22.3,8.1,-13.4,22.0,8.4,-13.2,5.73,1.98,-6.6,26.5
2015-05-08 00:28:00,0.0,1.90934,0.00040,403.622,0.034,0.2906,0.0015,139.998,45.000,34199.99230,1.91482,405.043,32.415,45.068,45.000,0.00,0.09,-272.72,-272.77,-5,978,-3,22.3,8.1,-13.4,22.0,8.3,-13.3,5.73,1.98,-6.6,26.5
2015-05-08 00:29:00,0.0,1.90935,0.00039,403.606,0.033,0.2894,0.0014,139.998,45.000,34200.49033,1.91485,405.022,32.387,45.068,45.000,0.00,0.09,-272.72,-272.77,-5,978,-3,22.3,8.1,-13.5,22.0,8.3,-13.4,5.73,1.99,-6.6,26.5
2015-05-08 00:30:00,0.0,1.90959,0.00043,403.639,0.023,0.2890,0.0015,139.999,45.000,34197.87414,1.91503,405.052,32.399,45.068,45.000,0.00,0.09,-272.72,-272.78,-5,977,-3,22.3,8.0,-13.5,22.0,8.3,-13.4,5.73,1.99,-6.6,26.4
2015-05-08 00:31:00,0.0,1.90978,0.00033,403.667,0.034,0.2899,0.0017,140.000,45.000,34197.77232,1.91528,405.083,32.393,45.068,45.000,0.00,0.09,-272.72,-272.77,-5,978,-3,22.3,8.1,-13.4,22.0,8.3,-13.4,5.73,1.99,-6.6,26.4
2015-05-08 00:32:00,0.0,1.90945,0.00038,403.656,0.030,0.2892,0.0016,139.997,45.000,34199.56212,1.91491,405.073,32.427,45.068,45.000,0.00,0.09,-272.71,-272.77,-5,978,-3,22.3,8.1,-13.5,22.0,8.3,-13.3,5.73,1.98,-6.6,26.5
2015-05-08 00:33:00,0.0,1.90971,0.00029,403.637,0.024,0.2912,0.0019,139.996,45.000,34198.44446,1.91523,405.062,32.429,45.068,45.000,0.00,0.09,-272.72,-272.78,-5,978,-3,22.3,8.1,-13.4,22.0,8.3,-13.3,5.73,1.99,-6.6,26.5
2015-05-08 00:34:00,0.0,1.91012,0.00030,403.626,0.032,0.2921,0.0018,140.000,45.000,34199.87849,1.91564,405.056,32.436,45.068,45.000,0.00,0.09,-272.72,-272.78,-5,978,-3,22.3,8.1,-13.4,22.0,8.3,-13.3,5.73,1.99,-6.6,26.5
2015-05-08 00:35:00,0.0,1.91030,0.00024,403.632,0.026,0.2930,0.0020,139.999,45.000,34199.88568,1.91583,405.064,32.437,45.068,45.000,0.00,0.09,-272.71,-272.77,-5,978,-3,22.3,8.1,-13.3,22.0,8.4,-13.2,5.73,1.99,-6.6,26.5
2015-05-08 00:36:00,0.0,1.91071,0.00031,403.615,0.035,0.2942,0.0015,140.000,45.000,34199.49475,1.91627,405.056,32.438,45.068,45.000,0.00,0.09,-272.72,-272.78,-5,979,-3,22.3,8.2,-13.3,22.0,8.4,-13.2,5.73,1.99,-6.6,26.5
2015-05-08 00:37:00,0.0,1.91114,0.00033,403.607,0.031,0.2949,0.0012,139.999,45.000,34201.28642,1.91672,405.050,32.443,45.068,45.000,0.00,0.09,-272.72,-272.78,-5,978,-3,22.3,8.2,-13.2,22.0,8.4,-13.1,5.73,1.99,-6.6,26.5
2015-05-08 00:38:00,0.0,1.91110,0.00039,403.626,0.036,0.2937,0.0024,139.997,45.000,34201.36424,1.91664,405.062,32.474,45.068,45.000,0.00,0.09,-272.72,-272.78,-5,978,-3,22.3,8.2,-13.3,22.0,8.4,-13.2,5.73,1.99,-6.6,26.4
2015-05-08 00:39:00,0.0,1.91125,0.00025,403.633,0.037,0.2915,0.0022,139.996,45.000,34202.08514,1.91679,405.060,32.476,45.068,45.000,0.00,0.09,-272.71,-272.77,-5,977,-3,22.3,8.1,-13.4,22.0,8.3,-13.3,5.73,1.99,-6.6,26.5
2015-05-08 00:40:00,0.0,1.91161,0.00047,403.635,0.029,0.2931,0.0018,139.999,45.000,34201.08501,1.91715,405.070,32.483,45.068,45.000,0.00,0.09,-272.73,-272.77,-5,978,-3,22.3,8.1,-13.3,22.0,8.4,-13.2,5.73,1.99,-6.6,26.4
2015-05-08 00:41:00,0.0,1.91013,0.00076,403.604,0.019,0.2942,0.0018,140.000,45.000,34201.44057,1.91579,405.043,32.451,45.068,45.000,0.00,0.09,-272.72,-272.78,-5,978,-3,22.3,8.2,-13.3,22.0,8.4,-13.2,5.73,1.99,-6.6,26.5
2015-05-08 00:42:00,0.0,1.91020,0.00047,403.616,0.044,0.2925,0.0029,139.997,45.000,34200.20378,1.91571,405.047,32.438,45.068,45.000,0.00,0.09,-272.71,-272.77,-5,978,-3,22.3,8.1,-13.3,22.0,8.4,-13.2,5.73,1.97,-6.6,26.5
2015-05-08 00:43:00,0.0,1.91029,0.00039,403.666,0.026,0.2885,0.0018,140.003,45.000,34202.39886,1.91580,405.078,32.426,45.068,45.000,0.00,0.09,-272.71,-272.77,-5,978,-3,22.3,8.0,-13.5,22.0,8.3,-13.4,5.73,1.99,-6.6,26.4
2015-05-08 00:44:00,0.0,1.91003,0.00043,403.654,0.030,0.2909,0.0022,139.997,45.000,34199.50885,1.91551,405.076,32.428,45.068,45.000,0.00,0.09,-272.72,-272.77,-5,978,-3,22.3,8.1,-13.4,22.0,8.3,-13.3,5.73,1.99,-6.6,26.5
2015-05-08 00:45:00,0.0,1.91035,0.00043,403.639,0.034,0.2911,0.0019,140.000,45.000,34201.06902,1.91587,405.064,32.428,45.068,45.000,0.00,0.09,-272.71,-272.77,-5,978,-3,22.3,8.1,-13.4,22.0,8.3,-13.3,5.73,1.99,-6.6,26.4
2015-05-08 00:46:00,0.0,1.90996,0.00040,403.647,0.039,0.2873,0.0025,139.999,45.000,34201.02673,1.91540,405.055,32.429,45.068,45.000,0.00,0.09,-272.72,-272.78,-5,978,-3,22.3,8.0,-13.6,22.0,8.2,-13.4,5.73,1.99,-6.6,26.4
2015-05-08 00:47:00,0.0,1.90992,0.00037,403.660,0.031,0.2863,0.0015,139.999,45.000,34201.62025,1.91533,405.059,32.428,45.068,45.000,0.00,0.09,-272.72,-272.78,-5,978,-3,22.3,8.0,-13.6,22.0,8.2,-13.5,5.73,1.99,-6.6,26.4
2015-05-08 00:48:00,0.0,1.91019,0.00051,403.672,0.040,0.2865,0.0013,140.000,45.000,34200.62550,1.91561,405.071,32.433,45.068,45.000,0.00,0.09,-272.71,-272.77,-5,978,-3,22.3,8.0,-13.6,22.0,8.2,-13.5,5.73,1.99,-6.6,26.4
2015-05-08 00:49:00,0.0,1.91047,0.00039,403.667,0.029,0.2855,0.0017,139.999,45.000,34202.74641,1.91588,405.065,32.431,45.068,45.000,0.00,0.09,-272.72,-272.77,-5,978,-3,22.3,7.9,-13.6,22.0,8.2,-13.5,5.73,1.99,-6.6,26.4
2015-05-08 00:50:00,0.0,1.91035,0.00043,403.670,0.036,0.2857,0.0017,140.000,45.001,34205.26503,1.91575,405.068,32.396,45.068,45.000,0.00,0.09,-272.72,-272.78,-5,978,-3,22.3,8.0,-13.6,22.0,8.2,-13.5,5.73,1.99,-6.6,26.4
2015-05-08 00:51:00,0.0,1.91046,0.00028,403.656,0.029,0.2872,0.0015,139.999,45.001,34204.44402,1.91591,405.060,32.392,45.068,45.000,0.00,0.09,-272.72,-272.77,-5,978,-3,22.3,8.0,-13.6,22.0,8.2,-13.4,5.73,1.99,-6.6,26.5
2015-05-08 00:52:00,0.0,1.91048,0.00042,403.658,0.034,0.2877,0.0016,140.000,45.001,34206.38416,1.91594,405.066,32.391,45.068,45.000,0.00,0.09,-272.71,-272.77,-5,978,-3,22.3,8.0,-13.5,22.0,8.2,-13.4,5.73,1.99,-6.6,26.5
2015-05-08 00:53:00,0.0,1.91048,0.00041,403.644,0.026,0.2869,0.0015,140.001,45.001,34209.36929,1.91591,405.048,32.422,45.068,45.000,0.00,0.09,-272.72,-272.77,-5,978,-3,22.3,8.0,-13.5,22.0,8.2,-13.4,5.73,1.99,-6.6,26.5
2015-05-08 00:54:00,0.0,1.91042,0.00041,403.651,0.032,0.2868,0.0019,139.998,45.001,34208.28404,1.91587,405.054,32.437,45.068,45.000,0.00,0.09,-272.72,-272.78,-5,978,-3,22.3,8.0,-13.6,22.0,8.2,-13.5,5.73,2.00,-6.6,26.5
2015-05-08 00:55:00,0.0,1.91025,0.00036,403.640,0.024,0.2887,0.0016,140.001,45.000,34210.64453,1.91571,405.050,32.443,45.068,45.000,0.00,0.09,-272.71,-272.77,-5,978,-3,22.3,8.0,-13.5,22.0,8.2,-13.4,5.73,1.99,-6.6,26.5
2015-05-08 00:56:00,0.0,1.91047,0.00028,403.678,0.033,0.2879,0.0017,139.997,45.000,34208.86744,1.91589,405.085,32.489,45.068,45.000,0.00,0.09,-272.71,-272.77,-5,978,-3,22.3,8.0,-13.5,22.0,8.2,-13.4,5.73,1.99,-6.6,26.5
2015-05-08 00:57:00,0.0,1.91075,0.00041,403.692,0.021,0.2879,0.0023,139.999,45.000,34208.59538,1.91620,405.101,32.500,45.068,45.000,0.00,0.09,-272.72,-272.78,-5,978,-3,22.3,8.0,-13.5,22.0,8.2,-13.4,5.73,1.99,-6.6,26.5
2015-05-08 00:58:00,0.0,1.91076,0.00046,403.685,0.024,0.2889,0.0019,140.000,45.000,34208.20825,1.91623,405.099,32.495,45.068,44.999,0.00,0.09,-272.72,-272.77,-5,978,-3,22.3,8.0,-13.5,22.0,8.3,-13.4,5.73,2.00,-6.6,26.4
2015-05-08 00:59:00,0.0,1.91064,0.00023,403.666,0.030,0.2887,0.0020,139.998,45.000,34211.17920,1.91612,405.079,32.500,45.068,45.000,0.00,0.09,-272.71,-272.77,-5,978,-3,22.3,8.0,-13.5,22.0,8.2,-13.4,5.73,2.00,-6.6,26.5
2015-05-08 01:00:00,0.0,1.91046,0.00032,403.680,0.021,0.2903,0.0017,140.000,45.000,34209.67622,1.91594,405.099,32.500,45.068,45.000,0.00,0.09,-272.72,-272.78,-5,978,-3,22.3,8.1,-13.4,22.0,8.3,-13.4,5.73,1.99,-6.6,26.5
2015-05-08 01:01:00,0.0,1.91097,0.00036,403.651,0.029,0.2925,0.0022,139.999,45.000,34209.62539,1.91652,405.082,32.500,45.068,45.000,0.00,0.09,-272.71,-272.77,-5,978,-3,22.3,8.1,-13.4,22.0,8.3,-13.3,5.73,1.99,-6.6,26.5
2015-05-08 01:02:00,0.0,1.91095,0.00020,403.674,0.031,0.2889,0.0030,139.997,45.000,34209.90675,1.91643,405.088,32.487,45.068,45.000,0.00,0.09,-272.71,-272.77,-5,978,-3,22.3,8.0,-13.5,22.0,8.3,-13.4,5.73,1.99,-6.6,26.5
2015-05-08 01:03:00,0.0,1.91091,0.00042,403.688,0.029,0.2836,0.0022,139.996,45.000,34213.02987,1.91630,405.074,32.477,45.068,45.000,0.00,0.09,-272.72,-272.78,-5,978,-3,22.3,7.9,-13.7,22.0,8.1,-13.6,5.73,1.99,-6.6,26.6
2015-05-08 01:04:00,0.0,1.91108,0.00040,403.692,0.042,0.2835,0.0020,140.001,45.000,34212.39481,1.91644,405.079,32.453,45.068,45.000,0.00,0.09,-272.72,-272.78,-5,978,-3,22.3,7.9,-13.7,22.0,8.1,-13.6,5.73,1.99,-6.6,26.5
2015-05-08 01:05:00,0.0,1.91055,0.00038,403.689,0.029,0.2843,0.0017,139.997,45.000,34212.23035,1.91598,405.081,32.439,45.068,45.000,0.00,0.09,-272.71,-272.77,-5,978,-3,22.3,7.9,-13.7,22.0,8.1,-13.6,5.73,2.00,-6.6,26.6
2015-05-08 01:06:00,0.0,1.90981,0.00024,403.666,0.030,0.2851,0.0020,140.000,45.000,34211.94997,1.91520,405.061,32.438,45.068,45.000,0.00,0.09,-272.72,-272.77,-5,978,-3,22.3,7.9,-13.7,22.0,8.2,-13.5,5.73,1.99,-6.6,26.6
2015-05-08 01:07:00,0.0,1.91018,0.00035,403.674,0.030,0.2782,0.0030,139.999,45.000,34209.58158,1.91544,405.035,32.445,45.068,45.000,0.00,0.09,-272.72,-272.78,-5,978,-3,22.3,7.7,-13.9,22.0,8.0,-13.7,5.73,1.99,-6.6,26.5
2015-05-08 01:08:00,0.0,1.91043,0.00043,403.726,0.025,0.2716,0.0016,139.997,45.000,34210.08822,1.91555,405.053,32.443,45.068,45.000,0.00,0.09,-272.72,-272.77,-5,978,-3,22.3,7.6,-14.2,22.0,7.8,-14.1,5.73,1.98,-6.6,26.5
2015-05-08 01:09:00,0.0,1.91096,0.00046,403.738,0.021,0.2726,0.0018,139.999,45.000,34206.75739,1.91616,405.070,32.462,45.068,45.000,0.00,0.09,-272.71,-272.77,-5,978,-3,22.3,7.6,-14.2,22.0,7.8,-14.1,5.73,1.99,-6.6,26.5
2015-05-08 01:10:00,0.0,1.91077,0.00045,403.735,0.033,0.2718,0.0017,139.999,45.000,34208.81076,1.91588,405.064,32.486,45.068,45.000,0.00,0.09,-272.72,-272.77,-5,978,-3,22.3,7.6,-14.2,22.0,7.8,-14.1,5.73,1.98,-6.6,26.6
2015-05-08 01:11:00,0.0,1.91141,0.00042,403.763,0.031,0.2724,0.0018,140.001,45.000,34209.69006,1.91654,405.094,32.494,45.068,45.000,0.00,0.09,-272.72,-272.77,-5,978,-3,22.3,7.6,-14.2,22.0,7.8,-14.1,5.73,1.99,-6.6,26.5
2015-05-08 01:12:00,0.0,1.91158,0.00045,403.730,0.027,0.2756,0.0022,140.002,45.000,34210.84306,1.91681,405.080,32.497,45.068,45.000,0.00,0.09,-272.71,-272.77,-5,978,-3,22.3,7.7,-14.1,22.0,7.9,-13.9,5.73,1.99,-6.6,26.5
2015-05-08 01:13:00,0.0,1.91146,0.00027,403.762,0.046,0.2767,0.0015,140.001,45.000,34208.96549,1.91671,405.116,32.500,45.068,45.000,0.00,0.09,-272.71,-272.77,-5,978,-3,22.3,7.7,-14.0,22.0,7.9,-13.9,5.73,1.99,-6.6,26.5
2015-05-08 01:14:00,0.0,1.91129,0.00026,403.728,0.027,0.2805,0.0016,139.999,45.000,34208.71520,1.91660,405.098,32.498,45.068,45.000,0.00,0.09,-272.72,-272.78,-5,978,-3,22.3,7.8,-13.8,22.0,8.0,-13.8,5.73,1.99,-6.6,26.6
2015-05-08 01:15:00,0.0,1.91135,0.00042,403.707,0.024,0.2818,0.0021,140.000,45.000,34210.25918,1.91671,405.086,32.500,45.068,45.000,0.00,0.09,-272.71,-272.77,-5,978,-3,22.3,7.9,-13.8,22.0,8.1,-13.7,5.73,1.99,-6.6,26.6
2015-05-08 01:16:00,0.0,1.91131,0.00033,403.695,0.023,0.2855,0.0020,139.997,45.000,34212.55013,1.91672,405.091,32.499,45.068,45.000,0.00,0.09,-272.71,-272.77,-5,978,-3,22.3,7.9,-13.7,22.0,8.1,-13.6,5.73,1.99,-6.6,26.5
2015-05-08 01:17:00,0.0,1.91139,0.00046,403.710,0.026,0.2847,0.0013,140.002,45.000,34213.59029,1.91680,405.101,32.497,45.068,45.000,0.00,0.09,-272.72,-272.78,-5,978,-3,22.3,7.9,-13.6,22.0,8.2,-13.5,5.73,1.99,-6.6,26.5
2015-05-08 01:18:00,0.0,1.91186,0.00039,403.703,0.031,0.2871,0.0020,139.997,45.000,34211.32751,1.91725,405.106,32.495,45.068,45.000,0.00,0.09,-272.72,-272.77,-5,978,-3,22.3,8.0,-13.6,22.0,8.2,-13.5,5.73,1.99,-6.7,26.5
2015-05-08 01:19:00,0.0,1.91200,0.00034,403.699,0.025,0.2909,0.0018,139.998,45.000,34210.75971,1.91750,405.124,32.465,45.068,45.000,0.00,0.09,-272.72,-272.77,-5,978,-3,22.3,8.1,-13.4,22.0,8.3,-13.3,5.73,1.99,-6.6,26.5
2015-05-08 01:20:00,0.0,1.91241,0.00025,403.677,0.030,0.2922,0.0019,140.000,45.000,34210.95175,1.91795,405.108,32.446,45.068,45.000,0.00,0.09,-272.72,-272.78,-5,978,-3,22.3,8.1,-13.4,22.0,8.3,-13.3,5.73,1.98,-6.6,26.5
2015-05-08 01:21:00,0.0,1.91235,0.00026,403.687,0.021,0.2924,0.0022,139.998,45.000,34209.30423,1.91791,405.117,32.454,45.068,45.000,0.00,0.09,-272.72,-272.77,-5,978,-3,22.3,8.1,-13.4,22.0,8.3,-13.3,5.73,1.98,-6.6,26.5
2015-05-08 01:22:00,0.0,1.91231,0.00045,403.675,0.025,0.2882,0.0022,139.999,45.000,34211.13393,1.91778,405.085,32.473,45.068,45.000,0.00,0.09,-272.72,-272.77,-5,978,-3,22.3,8.0,-13.5,22.0,8.3,-13.4,5.73,1.99,-6.6,26.5
2015-05-08 01:23:00,0.0,1.91232,0.00044,403.682,0.023,0.2873,0.0016,139.998,45.000,34210.90748,1.91780,405.088,32.495,45.068,45.000,0.00,0.09,-272.72,-272.77,-5,978,-3,22.3,8.0,-13.6,22.0,8.2,-13.5,5.73,1.98,-6.6,26.5
2015-05-08 01:24:00,0.0,1.91240,0.00035,403.678,0.032,0.2871,0.0012,140.003,45.000,34212.24484,1.91780,405.082,32.500,45.068,45.000,0.00,0.09,-272.72,-272.78,-5,978,-3,22.3,8.0,-13.6,22.0,8.2,-13.5,5.73,1.99,-6.6,26.6
2015-05-08 01:25:00,0.0,1.91272,0.00038,403.711,0.027,0.2876,0.0018,140.000,45.000,34207.74791,1.91817,405.117,32.502,45.068,45.000,0.00,0.09,-272.71,-272.77,-5,978,-3,22.3,8.0,-13.6,22.0,8.2,-13.4,5.73,1.98,-6.6,26.6
2015-05-08 01:26:00,0.0,1.91398,0.00081,403.720,0.033,0.2857,0.0023,140.000,45.000,34208.47373,1.91934,405.119,32.513,45.068,45.000,0.00,0.09,-272.71,-272.77,-5,978,-3,22.3,7.9,-13.6,22.1,8.2,-13.5,5.73,1.98,-6.6,26.5
2015-05-08 01:27:00,0.0,1.91474,0.00035,403.742,0.041,0.2843,0.0027,140.000,45.000,34207.50940,1.92010,405.133,32.525,45.068,45.000,0.00,0.09,-272.72,-272.78,-5,978,-3,22.3,7.9,-13.7,22.0,8.1,-13.5,5.73,1.98,-6.6,26.5
2015-05-08 01:28:00,0.0,1.91428,0.00035,403.739,0.034,0.2811,0.0014,139.997,45.000,34205.85450,1.91967,405.114,32.522,45.068,45.000,0.00,0.09,-272.72,-272.78,-5,978,-3,22.3,7.8,-13.8,22.1,8.0,-13.7,5.73,1.98,-6.6,26.6
2015-05-08 01:29:00,0.0,1.91273,0.00056,403.721,0.028,0.2796,0.0023,139.997,45.000,34207.80962,1.91811,405.091,32.513,45.068,45.000,0.00,0.09,-272.71,-272.77,-5,978,-3,22.3,7.8,-13.9,22.1,8.0,-13.7,5.73,1.98,-6.6,26.5
2015-05-08 01:30:00,0.0,1.91119,0.00038,403.727,0.029,0.2740,0.0020,140.000,45.000,34209.38891,1.91644,405.068,32.511,45.068,45.000,0.00,0.09,-272.72,-272.78,-5,978,-3,22.4,7.6,-14.1,22.1,7.9,-13.9,5.73,1.98,-6.6,26.6
2015-05-08 01:31:00,0.0,1.91020,0.00037,403.699,0.027,0.2730,0.0016,139.997,45.000,34209.29598,1.91539,405.033,32.546,45.068,45.000,0.00,0.09,-272.72,-272.78,-5,978,-3,22.4,7.6,-14.2,22.1,7.8,-14.0,5.73,1.98,-6.6,26.6
2015-05-08 01:32:00,0.0,1.91009,0.00050,403.722,0.029,0.2723,0.0015,140.001,45.000,34209.48327,1.91529,405.056,32.545,45.068,45.000,0.00,0.09,-272.71,-272.77,-5,978,-3,22.4,7.5,-14.2,22.1,7.8,-14.1,5.73,1.98,-6.6,26.5
2015-05-08 01:33:00,0.0,1.90963,0.00040,403.739,0.031,0.2672,0.0014,139.999,45.000,34212.85596,1.91467,405.044,32.550,45.068,45.000,0.00,0.09,-272.72,-272.77,-5,978,-3,22.4,7.4,-14.4,22.1,7.7,-14.2,5.73,1.99,-6.6,26.5
2015-05-08 01:34:00,0.0,1.91055,0.00048,403.733,0.032,0.2661,0.0013,140.000,45.000,34212.36427,1.91552,405.034,32.559,45.068,45.000,0.00,0.09,-272.72,-272.78,-5,978,-3,22.4,7.4,-14.5,22.1,7.6,-14.3,5.73,1.99,-6.6,26.5
2015-05-08 01:35:00,0.0,1.91165,0.00041,403.742,0.027,0.2711,0.0026,139.997,45.000,34211.49104,1.91675,405.066,32.556,45.068,45.000,0.00,0.09,-272.71,-272.77,-5,979,-3,22.4,7.5,-14.3,22.1,7.7,-14.2,5.73,1.98,-6.7,26.5
2015-05-08 01:36:00,0.0,1.91195,0.00050,403.708,0.028,0.2727,0.0013,139.998,45.000,34215.04445,1.91709,405.042,32.520,45.068,45.000,0.00,0.09,-272.71,-272.77,-5,979,-3,22.4,7.6,-14.2,22.1,7.8,-14.1,5.73,1.99,-6.6,26.5
2015-05-08 01:37:00,0.0,1.91178,0.00041,403.708,0.028,0.2747,0.0022,139.998,45.000,34214.43254,1.91704,405.051,32.527,45.068,45.000,0.00,0.09,-272.72,-272.77,-5,978,-3,22.4,7.6,-14.1,22.1,7.8,-14.0,5.73,1.98,-6.7,26.5
2015-05-08 01:38:00,0.0,1.91180,0.00035,403.708,0.034,0.2748,0.0017,139.998,45.000,34210.36301,1.91700,405.052,32.525,45.068,45.000,0.00,0.09,-272.71,-272.77,-5,978,-3,22.4,7.6,-14.1,22.1,7.9,-14.0,5.73,1.98,-6.7,26.6
2015-05-08 01:39:00,0.0,1.91175,0.00041,403.722,0.020,0.2755,0.0017,140.004,45.000,34212.13745,1.91697,405.068,32.503,45.068,45.000,0.00,0.09,-272.71,-272.78,-5,979,-3,22.4,7.6,-14.1,22.1,7.9,-13.9,5.73,1.99,-6.7,26.6
2015-05-08 01:40:00,0.0,1.91148,0.00038,403.711,0.029,0.2757,0.0015,139.997,45.000,34210.86459,1.91673,405.060,32.500,45.068,45.000,0.00,0.09,-272.71,-272.77,-5,979,-3,22.4,7.7,-14.0,22.1,7.9,-13.9,5.73,1.98,-6.6,26.5
2015-05-08 01:41:00,0.0,1.91086,0.00035,403.724,0.029,0.2765,0.0018,139.998,45.000,34210.86345,1.91611,405.076,32.493,45.068,45.000,0.00,0.09,-272.72,-272.78,-5,979,-3,22.4,7.7,-14.0,22.1,7.9,-13.9,5.73,1.98,-6.6,26.6
2015-05-08 01:42:00,0.0,1.91119,0.00053,403.741,0.041,0.2700,0.0026,139.999,45.000,34211.66836,1.91626,405.062,32.496,45.068,45.000,0.00,0.09,-272.71,-272.78,-5,978,-3,22.4,7.5,-14.2,22.1,7.8,-14.1,5.73,1.99,-6.6,26.6
2015-05-08 01:43:00,0.0,1.91122,0.00031,403.743,0.027,0.2698,0.0020,140.000,45.000,34211.88985,1.91636,405.061,32.498,45.068,45.000,0.00,0.09,-272.71,-272.77,-5,978,-3,22.4,7.5,-14.3,22.1,7.7,-14.2,5.73,1.98,-6.7,26.6
2015-05-08 01:44:00,0.0,1.91140,0.00045,403.740,0.032,0.2747,0.0018,139.998,45.000,34210.42882,1.91659,405.084,32.499,45.068,45.000,0.00,0.09,-272.72,-272.78,-5,978,-3,22.4,7.6,-14.1,22.1,7.8,-14.0,5.73,1.99,-6.7,26.6
2015-05-08 01:45:00,0.0,1.91165,0.00033,403.753,0.017,0.2750,0.0013,139.998,45.000,34208.83680,1.91686,405.098,32.500,45.068,45.000,0.00,0.09,-272.72,-272.77,-5,979,-3,22.4,7.6,-14.1,22.1,7.8,-14.0,5.73,1.98,-6.7,26.6
2015-05-08 01:46:00,0.0,1.91141,0.00033,403.721,0.033,0.2780,0.0021,140.001,45.000,34210.98809,1.91669,405.081,32.503,45.068,45.000,0.00,0.09,-272.71,-272.77,-5,979,-3,22.4,7.7,-13.9,22.1,7.9,-13.9,5.73,1.98,-6.7,26.5